When you browse on this site, cookies collect data to enhance your experience and personalize the content and advertising you see.
Visit our Privacy Policy to learn more. By continuing to use the site, you agree to this use of cookies and data.
  • în România
  • Lista ţărilor
  • Pe 7 zile
  • Temperatura apei
  • Hartă satelitară
  • Meteo pe hartă
  • Widget-uri
  • user-avatar
    Intrare

    Meteo pe oră la Olsztyn

    Astăzi, 17 Iulie, Miercuri

    Timp Temperatura Precipitaţii Vânt Presiune Umiditate
    00:00 +12°C° 0.1 mm 2 m/s 745 mmHg 89%
    01:00 +13°C° 0 mm 2 m/s 745 mmHg 91%
    02:00 +13°C° 0.6 mm 2 m/s 745 mmHg 93%
    03:00 +11°C° 0.6 mm 3 m/s 745 mmHg 95%
    04:00 +11°C° 0.6 mm 3 m/s 744 mmHg 97%
    05:00 +12°C° 0.1 mm 3 m/s 745 mmHg 94%
    06:00 +13°C° 0.1 mm 4 m/s 745 mmHg 91%
    07:00 +14°C° 0 mm 4 m/s 745 mmHg 87%
    08:00 +15°C° 0.3 mm 4 m/s 745 mmHg 82%
    09:00 +17°C° 0.3 mm 4 m/s 746 mmHg 77%
    10:00 +17°C° 0.3 mm 5 m/s 746 mmHg 72%
    11:00 +19°C° 0.2 mm 5 m/s 746 mmHg 67%
    12:00 +19°C° 0.2 mm 6 m/s 746 mmHg 63%
    13:00 +20°C° 0.2 mm 6 m/s 746 mmHg 59%
    14:00 +19°C° 0 mm 6 m/s 746 mmHg 61%
    15:00 +19°C° 0 mm 6 m/s 746 mmHg 63%
    16:00 +17°C° 0 mm 6 m/s 746 mmHg 64%
    17:00 +16°C° 0 mm 5 m/s 746 mmHg 70%
    18:00 +15°C° 0 mm 4 m/s 747 mmHg 75%
    19:00 +14°C° 0 mm 4 m/s 747 mmHg 80%
    20:00 +13°C° 0 mm 3 m/s 747 mmHg 86%
    21:00 +12°C° 0 mm 3 m/s 747 mmHg 91%
    22:00 +11°C° 0 mm 3 m/s 748 mmHg 96%
    23:00 +11°C° 0 mm 3 m/s 748 mmHg 97%

    Mâine, 18 Iulie, Joi

    Timp Temperatura Precipitaţii Vânt Presiune Umiditate
    00:00 +11°C° 0 mm 3 m/s 748 mmHg 97%
    01:00 +11°C° 0 mm 3 m/s 748 mmHg 98%
    02:00 +12°C° 0 mm 2 m/s 748 mmHg 98%
    03:00 +10°C° 0 mm 2 m/s 748 mmHg 98%
    04:00 +10°C° 0 mm 2 m/s 748 mmHg 98%
    05:00 +13°C° 0 mm 2 m/s 748 mmHg 93%
    06:00 +14°C° 0 mm 3 m/s 748 mmHg 88%
    07:00 +16°C° 0 mm 3 m/s 748 mmHg 82%
    08:00 +18°C° 0 mm 3 m/s 748 mmHg 76%
    09:00 +19°C° 0 mm 3 m/s 748 mmHg 69%
    10:00 +21°C° 0 mm 3 m/s 749 mmHg 62%
    11:00 +21°C° 0.1 mm 3 m/s 748 mmHg 61%
    12:00 +22°C° 0.1 mm 3 m/s 748 mmHg 59%
    13:00 +22°C° 0.1 mm 4 m/s 748 mmHg 58%
    14:00 +22°C° 0 mm 3 m/s 748 mmHg 58%
    15:00 +22°C° 0 mm 3 m/s 748 mmHg 59%
    16:00 +22°C° 0 mm 3 m/s 748 mmHg 60%
    17:00 +20°C° 0 mm 3 m/s 748 mmHg 66%
    18:00 +19°C° 0 mm 2 m/s 748 mmHg 72%
    19:00 +18°C° 0 mm 2 m/s 748 mmHg 79%
    20:00 +16°C° 0 mm 1 m/s 749 mmHg 83%
    21:00 +15°C° 0 mm 1 m/s 749 mmHg 88%
    22:00 +13°C° 0 mm 1 m/s 749 mmHg 92%
    23:00 +12°C° 0 mm 0 m/s 749 mmHg 92%

    Poimâine, 19 Iulie, Vineri

    Timp Temperatura Precipitaţii Vânt Presiune Umiditate
    00:00 +12°C° 0 mm 0 m/s 749 mmHg 91%
    01:00 +11°C° 0 mm 0 m/s 749 mmHg 91%
    02:00 +11°C° 0 mm 0 m/s 749 mmHg 91%
    03:00 +11°C° 0 mm 0 m/s 749 mmHg 91%
    04:00 +11°C° 0 mm 0 m/s 749 mmHg 90%
    05:00 +13°C° 0 mm 0 m/s 749 mmHg 83%
    06:00 +15°C° 0 mm 0 m/s 750 mmHg 76%
    07:00 +18°C° 0 mm 0 m/s 750 mmHg 69%
    08:00 +19°C° 0 mm 0 m/s 750 mmHg 63%
    09:00 +23°C° 0 mm 1 m/s 750 mmHg 57%
    10:00 +25°C° 0 mm 1 m/s 750 mmHg 52%
    11:00 +25°C° 0 mm 1 m/s 750 mmHg 50%
    12:00 +25°C° 0 mm 2 m/s 750 mmHg 48%
    13:00 +25°C° 0 mm 2 m/s 750 mmHg 46%
    14:00 +25°C° 0 mm 2 m/s 750 mmHg 49%
    15:00 +25°C° 0 mm 2 m/s 750 mmHg 51%
    16:00 +25°C° 0 mm 2 m/s 750 mmHg 53%
    17:00 +23°C° 0 mm 2 m/s 750 mmHg 60%
    18:00 +21°C° 0 mm 2 m/s 750 mmHg 68%
    19:00 +21°C° 0 mm 1 m/s 750 mmHg 75%
    20:00 +19°C° 0 mm 1 m/s 750 mmHg 78%
    21:00 +18°C° 0 mm 1 m/s 750 mmHg 80%
    22:00 +16°C° 0 mm 1 m/s 750 mmHg 83%
    23:00 +16°C° 0 mm 1 m/s 750 mmHg 84%

    20 Iulie, Sâmbătă

    Timp Temperatura Precipitaţii Vânt Presiune Umiditate
    00:00 +15°C° 0 mm 1 m/s 750 mmHg 85%
    01:00 +15°C° 0 mm 1 m/s 750 mmHg 86%
    02:00 +15°C° 0 mm 1 m/s 751 mmHg 87%
    03:00 +14°C° 0 mm 1 m/s 751 mmHg 87%
    04:00 +14°C° 0 mm 1 m/s 751 mmHg 88%
    05:00 +16°C° 0 mm 1 m/s 751 mmHg 82%
    06:00 +19°C° 0 mm 1 m/s 751 mmHg 76%
    07:00 +21°C° 0 mm 1 m/s 751 mmHg 69%
    08:00 +23°C° 0 mm 1 m/s 752 mmHg 63%
    09:00 +25°C° 0 mm 1 m/s 752 mmHg 56%
    10:00 +25°C° 0 mm 0 m/s 752 mmHg 49%
    11:00 +25°C° 0 mm 0 m/s 752 mmHg 48%
    12:00 +25°C° 0 mm 0 m/s 752 mmHg 47%
    13:00 +25°C° 0 mm 0 m/s 752 mmHg 46%
    14:00 +27°C° 0 mm 1 m/s 752 mmHg 48%
    15:00 +27°C° 0 mm 1 m/s 752 mmHg 49%
    16:00 +27°C° 0 mm 1 m/s 752 mmHg 51%
    17:00 +25°C° 0 mm 1 m/s 752 mmHg 57%
    18:00 +24°C° 0 mm 2 m/s 752 mmHg 63%
    19:00 +23°C° 0 mm 2 m/s 752 mmHg 69%
    20:00 +21°C° 0 mm 2 m/s 752 mmHg 72%
    21:00 +20°C° 0 mm 2 m/s 752 mmHg 74%
    22:00 +18°C° 0 mm 2 m/s 752 mmHg 77%
    23:00 +18°C° 0 mm 2 m/s 752 mmHg 77%

    21 Iulie, Duminică

    Timp Temperatura Precipitaţii Vânt Presiune Umiditate
    00:00 +17°C° 0 mm 2 m/s 752 mmHg 78%
    01:00 +17°C° 0 mm 3 m/s 752 mmHg 78%
    02:00 +17°C° 0 mm 3 m/s 752 mmHg 79%
    03:00 +17°C° 0 mm 3 m/s 752 mmHg 79%
    04:00 +16°C° 0 mm 3 m/s 752 mmHg 79%
    05:00 +18°C° 0 mm 3 m/s 752 mmHg 77%
    06:00 +19°C° 0 mm 3 m/s 752 mmHg 75%
    07:00 +21°C° 0 mm 3 m/s 752 mmHg 73%
    08:00 +22°C° 0.3 mm 3 m/s 752 mmHg 73%
    09:00 +24°C° 0.3 mm 3 m/s 751 mmHg 72%
    10:00 +25°C° 0.3 mm 3 m/s 751 mmHg 72%
    11:00 +25°C° 0.6 mm 3 m/s 751 mmHg 72%
    12:00 +25°C° 0.6 mm 3 m/s 751 mmHg 72%
    13:00 +25°C° 0.6 mm 3 m/s 751 mmHg 71%
    14:00 +24°C° 3 mm 3 m/s 750 mmHg 77%
    15:00 +22°C° 3 mm 3 m/s 750 mmHg 82%
    16:00 +21°C° 3 mm 3 m/s 750 mmHg 87%
    17:00 +21°C° 3.4 mm 2 m/s 750 mmHg 90%
    18:00 +20°C° 3.4 mm 2 m/s 750 mmHg 92%
    19:00 +20°C° 3.4 mm 1 m/s 750 mmHg 95%
    20:00 +19°C° 0.2 mm 1 m/s 751 mmHg 95%
    21:00 +19°C° 0.2 mm 1 m/s 751 mmHg 96%
    22:00 +18°C° 0.2 mm 1 m/s 751 mmHg 96%
    23:00 +18°C° 0.4 mm 1 m/s 751 mmHg 97%

    22 Iulie, Luni

    Timp Temperatura Precipitaţii Vânt Presiune Umiditate
    00:00 +17°C° 0.4 mm 2 m/s 751 mmHg 97%
    01:00 +16°C° 0.4 mm 2 m/s 751 mmHg 98%
    02:00 +16°C° 0 mm 2 m/s 751 mmHg 98%
    03:00 +16°C° 0 mm 3 m/s 751 mmHg 98%
    04:00 +16°C° 0 mm 3 m/s 751 mmHg 98%
    05:00 +16°C° 0 mm 3 m/s 751 mmHg 96%
    06:00 +17°C° 0 mm 3 m/s 751 mmHg 94%
    07:00 +17°C° 0 mm 3 m/s 752 mmHg 92%
    08:00 +18°C° 0.1 mm 3 m/s 752 mmHg 89%
    09:00 +19°C° 0.1 mm 3 m/s 752 mmHg 85%
    10:00 +20°C° 0.1 mm 3 m/s 752 mmHg 82%
    11:00 +21°C° 0.5 mm 3 m/s 752 mmHg 80%
    12:00 +21°C° 0.5 mm 4 m/s 752 mmHg 78%
    13:00 +22°C° 0.5 mm 4 m/s 752 mmHg 76%
    14:00 +22°C° 0.4 mm 4 m/s 752 mmHg 77%
    15:00 +22°C° 0.4 mm 4 m/s 752 mmHg 78%
    16:00 +22°C° 0.4 mm 4 m/s 752 mmHg 78%
    17:00 +20°C° 0 mm 4 m/s 752 mmHg 82%
    18:00 +19°C° 0 mm 3 m/s 752 mmHg 85%
    19:00 +18°C° 0 mm 3 m/s 752 mmHg 88%
    20:00 +18°C° 0 mm 3 m/s 752 mmHg 91%
    21:00 +17°C° 0 mm 3 m/s 752 mmHg 93%
    22:00 +17°C° 0 mm 2 m/s 752 mmHg 96%
    23:00 +17°C° 0 mm 2 m/s 752 mmHg 96%
    Arată mai mult